EAG5510 SBSV-SBGL

Flight info

Callsign EAG5510
Flight time 1h 38m
Altitude 34000
Route IRUMI UN857 MOLSU
Aircraft B738/M-SDE2E3FGHIRWXY/LB1

Departure

Time 2026-04-29 20:22
Airport Deputado Luiz Eduardo Magalhães International Airport (SBSV)

Arrival

Time 2026-04-29 22:01
Airport Rio Galeão – Tom Jobim International Airport (SBGL)
Time Latitude Longitude Altitude Speed Heading
2026-04-29 20:04 -12.91346 -38.33316 40 ft 0 kts 168°
2026-04-29 20:14 -12.91332 -38.33319 40 ft 4 kts 156°
2026-04-29 20:14 -12.91312 -38.33335 41 ft 4 kts 121°
2026-04-29 20:14 -12.91303 -38.33360 41 ft 4 kts 93°
2026-04-29 20:15 -12.91305 -38.33384 38 ft 1 kts 78°
2026-04-29 20:18 -12.91304 -38.33382 38 ft 3 kts 78°
2026-04-29 20:19 -12.91298 -38.33349 41 ft 5 kts 78°
2026-04-29 20:19 -12.91279 -38.33318 43 ft 6 kts 29°
2026-04-29 20:19 -12.91242 -38.33320 40 ft 5 kts 338°
2026-04-29 20:19 -12.91215 -38.33347 43 ft 6 kts 303°
2026-04-29 20:20 -12.91187 -38.33398 43 ft 9 kts 291°
2026-04-29 20:20 -12.91187 -38.33471 42 ft 11 kts 261°
2026-04-29 20:20 -12.91196 -38.33546 42 ft 11 kts 274°
2026-04-29 20:20 -12.91146 -38.33587 43 ft 10 kts
2026-04-29 20:21 -12.91113 -38.33529 43 ft 10 kts 78°
2026-04-29 20:21 -12.91093 -38.33432 42 ft 29 kts 78°
2026-04-29 20:21 -12.91020 -38.33068 46 ft 80 kts 78°
2026-04-29 20:21 -12.90862 -38.32275 50 ft 144 kts 78°
2026-04-29 20:22 -12.90618 -38.31084 160 ft 190 kts 80°
2026-04-29 20:22 -12.90353 -38.29757 1011 ft 188 kts 81°
2026-04-29 20:22 -12.90111 -38.28494 2116 ft 174 kts 84°
2026-04-29 20:22 -12.90331 -38.27231 2549 ft 197 kts 123°
2026-04-29 20:23 -12.91474 -38.26342 2782 ft 224 kts 157°
2026-04-29 20:23 -12.93011 -38.25897 3270 ft 237 kts 165°
2026-04-29 20:23 -12.94696 -38.25509 3688 ft 254 kts 165°
2026-04-29 20:23 -12.96433 -38.25116 4439 ft 260 kts 165°
2026-04-29 20:24 -12.98203 -38.24708 5353 ft 261 kts 165°
2026-04-29 20:24 -12.99984 -38.24287 6223 ft 264 kts 165°
2026-04-29 20:24 -13.01784 -38.23853 7006 ft 268 kts 165°
2026-04-29 20:24 -13.03617 -38.23406 7758 ft 273 kts 165°
2026-04-29 20:25 -13.05478 -38.22948 8521 ft 277 kts 165°
2026-04-29 20:25 -13.07366 -38.22482 9285 ft 281 kts 165°
2026-04-29 20:25 -13.09283 -38.22007 10018 ft 286 kts 165°
2026-04-29 20:25 -13.11258 -38.21516 10449 ft 302 kts 165°
2026-04-29 20:26 -13.13389 -38.20987 10600 ft 326 kts 165°
2026-04-29 20:26 -13.15724 -38.20738 10756 ft 350 kts 179°
2026-04-29 20:26 -13.18229 -38.20840 10890 ft 370 kts 181°
2026-04-29 20:26 -13.20849 -38.21005 11149 ft 383 kts 182°
2026-04-29 20:27 -13.23536 -38.21186 11592 ft 389 kts 181°
2026-04-29 20:27 -13.25329 -38.21304 11964 ft 391 kts 181°
2026-04-29 20:27 -13.28982 -38.21532 12668 ft 396 kts 181°
2026-04-29 20:27 -13.31750 -38.21694 13145 ft 400 kts 180°
2026-04-29 20:28 -13.34545 -38.21849 13621 ft 404 kts 180°
2026-04-29 20:28 -13.37361 -38.22002 14080 ft 407 kts 180°
2026-04-29 20:28 -13.40200 -38.22153 14530 ft 410 kts 180°
2026-04-29 20:28 -13.43059 -38.22304 14949 ft 413 kts 180°
2026-04-29 20:29 -13.45904 -38.22454 15356 ft 416 kts 180°
2026-04-29 20:29 -13.48799 -38.22606 15784 ft 418 kts 180°
2026-04-29 20:29 -13.51717 -38.22759 16198 ft 421 kts 180°
2026-04-29 20:29 -13.54657 -38.22914 16585 ft 424 kts 180°
2026-04-29 20:30 -13.57609 -38.23069 16980 ft 427 kts 180°
2026-04-29 20:30 -13.60597 -38.23226 17354 ft 430 kts 180°
2026-04-29 20:30 -13.63593 -38.23384 17702 ft 433 kts 180°
2026-04-29 20:30 -13.66607 -38.23543 18078 ft 435 kts 180°
2026-04-29 20:31 -13.69642 -38.23703 18420 ft 438 kts 180°
2026-04-29 20:31 -13.72688 -38.23864 18730 ft 440 kts 180°
2026-04-29 20:31 -13.75755 -38.24026 19053 ft 441 kts 180°
2026-04-29 20:31 -13.78828 -38.24189 19384 ft 443 kts 180°
2026-04-29 20:32 -13.81910 -38.24351 19699 ft 445 kts 180°
2026-04-29 20:32 -13.85005 -38.24515 20009 ft 446 kts 180°
2026-04-29 20:32 -13.88120 -38.24679 20296 ft 449 kts 180°
2026-04-29 20:32 -13.90184 -38.24788 20498 ft 450 kts 180°
2026-04-29 20:33 -13.94382 -38.25010 20898 ft 452 kts 180°
2026-04-29 20:33 -13.97533 -38.25177 21186 ft 454 kts 180°
2026-04-29 20:33 -13.99626 -38.25287 21382 ft 455 kts 180°
2026-04-29 20:33 -14.03829 -38.25510 21752 ft 458 kts 180°
2026-04-29 20:34 -14.07020 -38.25678 22018 ft 460 kts 180°
2026-04-29 20:34 -14.10221 -38.25848 22297 ft 462 kts 180°
2026-04-29 20:34 -14.13439 -38.26018 22568 ft 463 kts 180°
2026-04-29 20:34 -14.15619 -38.26134 22746 ft 465 kts 180°
2026-04-29 20:35 -14.18818 -38.26303 22990 ft 467 kts 180°
2026-04-29 20:35 -14.22072 -38.26475 23233 ft 469 kts 180°
2026-04-29 20:35 -14.25334 -38.26648 23479 ft 471 kts 180°
2026-04-29 20:35 -14.28617 -38.26822 23698 ft 472 kts 180°
2026-04-29 20:36 -14.31908 -38.26997 23911 ft 473 kts 180°
2026-04-29 20:36 -14.35198 -38.27172 24139 ft 474 kts 180°
2026-04-29 20:36 -14.38498 -38.27347 24354 ft 475 kts 180°
2026-04-29 20:36 -14.41804 -38.27523 24570 ft 476 kts 180°
2026-04-29 20:37 -14.45115 -38.27698 24778 ft 477 kts 180°
2026-04-29 20:37 -14.48430 -38.27874 24990 ft 478 kts 181°
2026-04-29 20:37 -14.51757 -38.28051 25185 ft 479 kts 181°
2026-04-29 20:37 -14.55086 -38.28228 25378 ft 480 kts 181°
2026-04-29 20:38 -14.58389 -38.28404 25574 ft 481 kts 181°
2026-04-29 20:38 -14.61739 -38.28582 25762 ft 482 kts 181°
2026-04-29 20:38 -14.65095 -38.28760 25953 ft 483 kts 181°
2026-04-29 20:38 -14.68454 -38.28939 26135 ft 484 kts 181°
2026-04-29 20:39 -14.71822 -38.29118 26325 ft 484 kts 181°
2026-04-29 20:39 -14.75185 -38.29297 26512 ft 485 kts 181°
2026-04-29 20:39 -14.78563 -38.29477 26689 ft 486 kts 181°
2026-04-29 20:39 -14.81941 -38.29657 26855 ft 487 kts 181°
2026-04-29 20:40 -14.85332 -38.29837 27025 ft 488 kts 181°
2026-04-29 20:40 -14.88731 -38.30019 27197 ft 489 kts 181°
2026-04-29 20:40 -14.92127 -38.30200 27390 ft 489 kts 181°
2026-04-29 20:40 -14.95518 -38.30381 27645 ft 487 kts 181°
2026-04-29 20:41 -14.98902 -38.30563 27943 ft 485 kts 182°
2026-04-29 20:41 -15.02187 -38.31113 28191 ft 487 kts 197°
2026-04-29 20:41 -15.05291 -38.32540 28490 ft 487 kts 206°
2026-04-29 20:41 -15.08274 -38.34184 28835 ft 485 kts 207°
2026-04-29 20:42 -15.11242 -38.35855 29125 ft 484 kts 207°
2026-04-29 20:42 -15.14197 -38.37517 29408 ft 483 kts 207°
2026-04-29 20:42 -15.17155 -38.39163 29723 ft 481 kts 207°
2026-04-29 20:42 -15.20103 -38.40785 30077 ft 479 kts 206°
2026-04-29 20:43 -15.23042 -38.42390 30377 ft 477 kts 206°
2026-04-29 20:43 -15.25973 -38.43984 30629 ft 476 kts 206°
2026-04-29 20:43 -15.28912 -38.45579 30868 ft 476 kts 206°
2026-04-29 20:43 -15.31840 -38.47168 31104 ft 475 kts 206°
2026-04-29 20:44 -15.34766 -38.48757 31360 ft 474 kts 206°
2026-04-29 20:44 -15.37696 -38.50349 31640 ft 473 kts 206°
2026-04-29 20:44 -15.40605 -38.51931 31915 ft 472 kts 206°
2026-04-29 20:44 -15.43516 -38.53515 32200 ft 471 kts 206°
2026-04-29 20:45 -15.46390 -38.55080 32465 ft 471 kts 206°
2026-04-29 20:45 -15.49286 -38.56658 32717 ft 470 kts 206°
2026-04-29 20:45 -15.52182 -38.58236 32990 ft 470 kts 206°
2026-04-29 20:45 -15.55073 -38.59811 33282 ft 468 kts 206°
2026-04-29 20:46 -15.57954 -38.61382 33554 ft 468 kts 206°
2026-04-29 20:46 -15.60833 -38.62952 33817 ft 467 kts 206°
2026-04-29 20:46 -15.63719 -38.64527 34027 ft 467 kts 206°
2026-04-29 20:46 -15.66569 -38.66082 34007 ft 469 kts 206°
2026-04-29 20:47 -15.72341 -38.69234 34011 ft 467 kts 206°
2026-04-29 20:47 -15.78086 -38.72373 34022 ft 465 kts 206°
2026-04-29 20:48 -15.83862 -38.75530 34028 ft 471 kts 206°
2026-04-29 20:48 -15.89687 -38.78715 34030 ft 475 kts 206°
2026-04-29 20:49 -15.95550 -38.81923 34023 ft 477 kts 206°
2026-04-29 20:49 -16.01392 -38.85123 34023 ft 478 kts 206°
2026-04-29 20:50 -16.07276 -38.88348 34023 ft 478 kts 206°
2026-04-29 20:50 -16.13163 -38.91578 34024 ft 477 kts 206°
2026-04-29 20:51 -16.19039 -38.94803 34024 ft 477 kts 206°
2026-04-29 20:51 -16.24905 -38.98018 34027 ft 476 kts 206°
2026-04-29 20:52 -16.30765 -39.01143 34024 ft 476 kts 206°
2026-04-29 20:52 -16.36667 -39.04275 34021 ft 476 kts 206°
2026-04-29 20:53 -16.42561 -39.07422 34019 ft 476 kts 206°
2026-04-29 20:53 -16.48422 -39.10617 34022 ft 476 kts 207°
2026-04-29 20:54 -16.57160 -39.15557 34025 ft 476 kts 207°
2026-04-29 20:55 -16.62958 -39.18830 34028 ft 476 kts 207°
2026-04-29 20:55 -16.68798 -39.22116 34031 ft 476 kts 207°
2026-04-29 20:56 -16.74638 -39.25402 34034 ft 476 kts 207°
2026-04-29 20:56 -16.80439 -39.28668 34034 ft 476 kts 207°
2026-04-29 20:57 -16.86277 -39.31959 34035 ft 476 kts 207°
2026-04-29 20:57 -16.92116 -39.35253 34036 ft 476 kts 207°
2026-04-29 20:58 -16.97955 -39.38549 34035 ft 476 kts 207°
2026-04-29 20:58 -17.03782 -39.41840 34035 ft 476 kts 207°
2026-04-29 20:59 -17.09576 -39.45111 34037 ft 476 kts 207°
2026-04-29 20:59 -17.15396 -39.48400 34039 ft 475 kts 207°
2026-04-29 21:00 -17.21216 -39.51692 34041 ft 475 kts 207°
2026-04-29 21:00 -17.27037 -39.54986 34036 ft 475 kts 207°
2026-04-29 21:01 -17.32845 -39.58277 34035 ft 474 kts 207°
2026-04-29 21:01 -17.38651 -39.61568 34035 ft 474 kts 207°
2026-04-29 21:02 -17.44457 -39.64862 34032 ft 474 kts 207°
2026-04-29 21:02 -17.50209 -39.68128 34041 ft 474 kts 207°
2026-04-29 21:03 -17.56009 -39.71423 34038 ft 474 kts 208°
2026-04-29 21:03 -17.61814 -39.74723 34036 ft 474 kts 208°
2026-04-29 21:04 -17.67607 -39.78020 34036 ft 473 kts 208°
2026-04-29 21:04 -17.73394 -39.81315 34035 ft 473 kts 208°
2026-04-29 21:05 -17.79191 -39.84619 34034 ft 473 kts 208°
2026-04-29 21:05 -17.84978 -39.87919 34035 ft 473 kts 208°
2026-04-29 21:06 -17.90723 -39.91198 34035 ft 473 kts 208°
2026-04-29 21:06 -17.96501 -39.94499 34039 ft 472 kts 208°
2026-04-29 21:07 -18.02281 -39.97800 34039 ft 472 kts 208°
2026-04-29 21:07 -18.08068 -40.01083 34044 ft 472 kts 208°
2026-04-29 21:08 -18.13859 -40.04365 34036 ft 472 kts 208°
2026-04-29 21:08 -18.19655 -40.07655 34039 ft 473 kts 208°
2026-04-29 21:09 -18.25442 -40.10945 34042 ft 473 kts 208°
2026-04-29 21:09 -18.31233 -40.14240 34045 ft 473 kts 208°
2026-04-29 21:10 -18.36988 -40.17518 34046 ft 473 kts 208°
2026-04-29 21:10 -18.42780 -40.20819 34041 ft 473 kts 208°
2026-04-29 21:11 -18.48570 -40.24121 34044 ft 473 kts 208°
2026-04-29 21:11 -18.54359 -40.27425 34045 ft 473 kts 208°
2026-04-29 21:12 -18.60146 -40.30731 34041 ft 473 kts 208°
2026-04-29 21:12 -18.65934 -40.34039 34044 ft 473 kts 208°
2026-04-29 21:13 -18.71722 -40.37351 34050 ft 473 kts 209°
2026-04-29 21:13 -18.77466 -40.40640 34048 ft 472 kts 209°
2026-04-29 21:14 -18.83241 -40.43949 34052 ft 472 kts 209°
2026-04-29 21:14 -18.89021 -40.47264 34046 ft 472 kts 209°
2026-04-29 21:15 -18.94800 -40.50581 34050 ft 472 kts 209°
2026-04-29 21:15 -19.00578 -40.53899 34046 ft 473 kts 209°
2026-04-29 21:16 -19.06366 -40.57227 34045 ft 473 kts 209°
2026-04-29 21:16 -19.12115 -40.60534 34055 ft 473 kts 209°
2026-04-29 21:17 -19.17893 -40.63861 34048 ft 473 kts 209°
2026-04-29 21:17 -19.23685 -40.67198 34050 ft 473 kts 209°
2026-04-29 21:18 -19.29473 -40.70536 34052 ft 473 kts 209°
2026-04-29 21:18 -19.35264 -40.73879 34052 ft 474 kts 210°
2026-04-29 21:19 -19.41050 -40.77221 34043 ft 474 kts 210°
2026-04-29 21:19 -19.46801 -40.80547 34052 ft 474 kts 210°
2026-04-29 21:20 -19.52596 -40.83900 34055 ft 474 kts 210°
2026-04-29 21:20 -19.58386 -40.87253 34050 ft 474 kts 210°
2026-04-29 21:21 -19.64174 -40.90599 34058 ft 474 kts 210°
2026-04-29 21:21 -19.69964 -40.93947 34060 ft 474 kts 210°
2026-04-29 21:22 -19.74773 -40.96731 34053 ft 474 kts 210°
2026-04-29 21:22 -19.80563 -41.00087 34061 ft 474 kts 210°
2026-04-29 21:23 -19.87286 -41.03989 34067 ft 474 kts 210°
2026-04-29 21:23 -19.93054 -41.07377 34077 ft 473 kts 210°
2026-04-29 21:24 -19.98814 -41.10776 34075 ft 473 kts 210°
2026-04-29 21:24 -20.03640 -41.13623 34083 ft 473 kts 210°
2026-04-29 21:25 -20.09358 -41.16996 34086 ft 473 kts 210°
2026-04-29 21:25 -20.15115 -41.20393 34082 ft 473 kts 210°
2026-04-29 21:26 -20.20869 -41.23786 34092 ft 473 kts 210°
2026-04-29 21:26 -20.26627 -41.27179 34090 ft 472 kts 211°
2026-04-29 21:27 -20.32373 -41.30570 34091 ft 472 kts 211°
2026-04-29 21:27 -20.38121 -41.33966 34082 ft 472 kts 211°
2026-04-29 21:28 -20.43861 -41.37361 34086 ft 472 kts 211°
2026-04-29 21:28 -20.49610 -41.40763 34079 ft 472 kts 211°
2026-04-29 21:29 -20.55358 -41.44147 34069 ft 472 kts 211°
2026-04-29 21:29 -20.61110 -41.47525 34067 ft 472 kts 211°
2026-04-29 21:30 -20.66859 -41.50906 34062 ft 472 kts 211°
2026-04-29 21:30 -20.72608 -41.54294 34064 ft 471 kts 211°
2026-04-29 21:31 -20.78345 -41.57678 34060 ft 471 kts 211°
2026-04-29 21:31 -20.84052 -41.61046 34058 ft 471 kts 211°
2026-04-29 21:32 -20.89787 -41.64435 34062 ft 471 kts 211°
2026-04-29 21:32 -20.95527 -41.67831 34047 ft 471 kts 211°
2026-04-29 21:33 -21.01265 -41.71227 34044 ft 471 kts 212°
2026-04-29 21:33 -21.07010 -41.74631 34030 ft 471 kts 212°
2026-04-29 21:34 -21.12747 -41.78033 34036 ft 471 kts 212°
2026-04-29 21:34 -21.18484 -41.81439 34023 ft 471 kts 212°
2026-04-29 21:35 -21.24186 -41.84823 34021 ft 471 kts 212°
2026-04-29 21:35 -21.29911 -41.88221 34023 ft 470 kts 212°
2026-04-29 21:36 -21.35634 -41.91621 34026 ft 470 kts 212°
2026-04-29 21:36 -21.41359 -41.95028 34022 ft 471 kts 212°
2026-04-29 21:37 -21.47091 -41.98442 34015 ft 471 kts 212°
2026-04-29 21:37 -21.52815 -42.01855 34032 ft 470 kts 212°
2026-04-29 21:38 -21.58532 -42.05265 34023 ft 470 kts 212°
2026-04-29 21:38 -21.64251 -42.08679 34029 ft 470 kts 212°
2026-04-29 21:39 -21.69959 -42.12091 34011 ft 466 kts 213°
2026-04-29 21:39 -21.75554 -42.15438 34021 ft 461 kts 213°
2026-04-29 21:40 -21.81151 -42.18790 34039 ft 460 kts 213°
2026-04-29 21:40 -21.86732 -42.22140 33876 ft 461 kts 213°
2026-04-29 21:40 -21.89548 -42.23839 33196 ft 464 kts 213°
2026-04-29 21:41 -21.92344 -42.25526 32595 ft 460 kts 213°
2026-04-29 21:41 -21.95139 -42.27215 32010 ft 457 kts 213°
2026-04-29 21:41 -21.97875 -42.28866 31738 ft 448 kts 213°
2026-04-29 21:41 -22.00623 -42.30529 30965 ft 461 kts 213°
2026-04-29 21:42 -22.03459 -42.32249 30221 ft 474 kts 213°
2026-04-29 21:42 -22.06350 -42.34008 29229 ft 477 kts 215°
2026-04-29 21:42 -22.08911 -42.36220 28260 ft 468 kts 232°
2026-04-29 21:42 -22.10776 -42.39029 27739 ft 454 kts 245°
2026-04-29 21:43 -22.11942 -42.42119 27298 ft 440 kts 257°
2026-04-29 21:43 -22.12721 -42.45333 26915 ft 447 kts 258°
2026-04-29 21:43 -22.13466 -42.48614 26473 ft 453 kts 259°
2026-04-29 21:43 -22.14209 -42.51900 25970 ft 447 kts 259°
2026-04-29 21:44 -22.14955 -42.55123 25588 ft 441 kts 258°
2026-04-29 21:44 -22.15699 -42.58287 25193 ft 441 kts 258°
2026-04-29 21:44 -22.16465 -42.61501 24759 ft 442 kts 258°
2026-04-29 21:44 -22.17234 -42.64701 24345 ft 439 kts 258°
2026-04-29 21:45 -22.17998 -42.67876 23911 ft 437 kts 258°
2026-04-29 21:45 -22.18760 -42.71048 23445 ft 435 kts 258°
2026-04-29 21:45 -22.19516 -42.74200 22991 ft 432 kts 258°
2026-04-29 21:45 -22.20266 -42.77331 22577 ft 428 kts 258°
2026-04-29 21:46 -22.21007 -42.80430 22160 ft 426 kts 258°
2026-04-29 21:46 -22.21745 -42.83517 21746 ft 423 kts 258°
2026-04-29 21:46 -22.22479 -42.86591 21340 ft 422 kts 258°
2026-04-29 21:46 -22.23210 -42.89655 20942 ft 421 kts 258°
2026-04-29 21:47 -22.23938 -42.92711 20422 ft 419 kts 258°
2026-04-29 21:47 -22.24657 -42.95726 20131 ft 411 kts 258°
2026-04-29 21:47 -22.25371 -42.98729 19728 ft 414 kts 258°
2026-04-29 21:47 -22.26088 -43.01750 19327 ft 415 kts 258°
2026-04-29 21:48 -22.26795 -43.04725 18932 ft 413 kts 258°
2026-04-29 21:48 -22.27506 -43.07722 18538 ft 411 kts 258°
2026-04-29 21:48 -22.28213 -43.10702 18107 ft 409 kts 258°
2026-04-29 21:48 -22.28916 -43.13672 17681 ft 407 kts 258°
2026-04-29 21:49 -22.29615 -43.16627 17279 ft 404 kts 258°
2026-04-29 21:49 -22.30308 -43.19557 16886 ft 402 kts 258°
2026-04-29 21:49 -22.30997 -43.22477 16508 ft 400 kts 258°
2026-04-29 21:49 -22.31684 -43.25387 16122 ft 399 kts 258°
2026-04-29 21:50 -22.32369 -43.28288 15740 ft 398 kts 258°
2026-04-29 21:50 -22.33052 -43.31183 15350 ft 398 kts 258°
2026-04-29 21:50 -22.33733 -43.34079 14953 ft 398 kts 258°
2026-04-29 21:50 -22.34416 -43.36983 14577 ft 397 kts 258°
2026-04-29 21:51 -22.35095 -43.39873 14184 ft 397 kts 258°
2026-04-29 21:51 -22.35772 -43.42752 13787 ft 394 kts 258°
2026-04-29 21:51 -22.38030 -43.47919 12937 ft 373 kts 228°
2026-04-29 21:52 -22.39993 -43.49637 12358 ft 366 kts 211°
2026-04-29 21:52 -22.42283 -43.50757 11819 ft 357 kts 202°
2026-04-29 21:52 -22.44585 -43.51684 11265 ft 349 kts 200°
2026-04-29 21:52 -22.46843 -43.52574 10738 ft 342 kts 200°
2026-04-29 21:53 -22.49056 -43.53473 10194 ft 338 kts 201°
2026-04-29 21:53 -22.51252 -43.54384 9917 ft 332 kts 201°
2026-04-29 21:53 -22.53338 -43.55256 9868 ft 311 kts 201°
2026-04-29 21:53 -22.55361 -43.55836 9714 ft 293 kts 182°
2026-04-29 21:54 -22.57315 -43.55601 9594 ft 276 kts 162°
2026-04-29 21:54 -22.59033 -43.54806 9458 ft 262 kts 154°
2026-04-29 21:54 -22.60647 -43.53947 9192 ft 254 kts 153°
2026-04-29 21:54 -22.62211 -43.53112 8796 ft 252 kts 154°
2026-04-29 21:55 -22.63797 -43.52165 8030 ft 266 kts 141°
2026-04-29 21:55 -22.64252 -43.51734 7795 ft 270 kts 135°
2026-04-29 21:55 -22.65430 -43.50275 7151 ft 278 kts 127°
2026-04-29 21:55 -22.66577 -43.48556 6461 ft 286 kts 124°
2026-04-29 21:56 -22.67722 -43.46784 5749 ft 287 kts 124°
2026-04-29 21:56 -22.68859 -43.45055 5027 ft 282 kts 124°
2026-04-29 21:56 -22.69976 -43.43372 4291 ft 268 kts 124°
2026-04-29 21:56 -22.71045 -43.41760 3575 ft 258 kts 124°
2026-04-29 21:57 -22.72050 -43.40242 3161 ft 237 kts 124°
2026-04-29 21:57 -22.72971 -43.38853 2864 ft 218 kts 124°
2026-04-29 21:57 -22.73819 -43.37573 2568 ft 201 kts 124°
2026-04-29 21:57 -22.74606 -43.36386 2333 ft 187 kts 124°
2026-04-29 21:58 -22.75340 -43.35276 2080 ft 176 kts 124°
2026-04-29 21:58 -22.76030 -43.34235 1883 ft 163 kts 124°
2026-04-29 21:58 -22.76668 -43.33273 1657 ft 154 kts 125°
2026-04-29 21:58 -22.77287 -43.32338 1451 ft 152 kts 124°
2026-04-29 21:59 -22.77906 -43.31404 1255 ft 154 kts 125°
2026-04-29 21:59 -22.78538 -43.30452 1048 ft 154 kts 126°
2026-04-29 21:59 -22.79161 -43.29514 841 ft 153 kts 127°
2026-04-29 21:59 -22.79779 -43.28580 653 ft 153 kts 127°
2026-04-29 22:00 -22.80399 -43.27632 387 ft 153 kts 128°
2026-04-29 22:00 -22.81013 -43.26712 172 ft 149 kts 129°
2026-04-29 22:00 -22.81590 -43.25844 21 ft 135 kts 126°
2026-04-29 22:00 -22.82016 -43.25203 24 ft 73 kts 126°
2026-04-29 22:01 -22.82232 -43.24877 16 ft 38 kts 126°
2026-04-29 22:01 -22.82323 -43.24718 13 ft 18 kts 112°
2026-04-29 22:01 -22.82345 -43.24641 14 ft 9 kts 105°
2026-04-29 22:01 -22.82359 -43.24574 14 ft 9 kts 96°
2026-04-29 22:02 -22.82365 -43.24507 13 ft 9 kts 95°
2026-04-29 22:02 -22.82370 -43.24453 14 ft 0 kts 95°
2026-04-29 22:02 -22.82367 -43.24449 12 ft 1 kts 63°
2026-04-29 22:02 -22.82353 -43.24439 4 ft 5 kts 38°
2026-04-29 22:03 -22.82313 -43.24406 18 ft 9 kts 36°
2026-04-29 22:03 -22.82263 -43.24366 21 ft 9 kts 36°
2026-04-29 22:03 -22.82214 -43.24328 22 ft 9 kts 36°
2026-04-29 22:03 -22.82163 -43.24298 20 ft 8 kts 13°
2026-04-29 22:04 -22.82114 -43.24322 20 ft 8 kts 309°
2026-04-29 22:04 -22.82074 -43.24382 20 ft 12 kts 306°
2026-04-29 22:04 -22.82026 -43.24454 20 ft 12 kts 305°
2026-04-29 22:04 -22.81979 -43.24526 20 ft 11 kts 306°
2026-04-29 22:05 -22.81936 -43.24589 20 ft 9 kts 311°
2026-04-29 22:05 -22.81881 -43.24601 20 ft 9 kts 22°
2026-04-29 22:05 -22.81777 -43.24560 23 ft 8 kts 342°
2026-04-29 22:06 -22.81730 -43.24590 21 ft 8 kts 327°
2026-04-29 22:06 -22.81695 -43.24633 22 ft 8 kts 306°
2026-04-29 22:06 -22.81647 -43.24641 21 ft 8 kts 13°
2026-04-29 22:06 -22.81623 -43.24636 21 ft 0 kts 12°